Radiation Dose at Monitoring Post of Fukushima Daini Nuclear Power Station
Date,Time,MP-1(microSv/h),MP-2(microSv/h),MP-3(microSv/h),MP-4(microSv/h),MP-5(microSv/h),MP-6(microSv/h),MP-7(microSv/h),Wind Direction,Wind Velocity(m/s),Rain
2019/02/28,00:00,0.216,0.197,0.317,0.297,0.278,0.160,0.096,south-southwest,3.4,No
2019/02/28,00:10,0.217,0.196,0.318,0.297,0.279,0.160,0.096,south-southwest,3.4,No
2019/02/28,00:20,0.217,0.196,0.319,0.298,0.279,0.160,0.096,south-southwest,4.4,No
2019/02/28,00:30,0.218,0.196,0.318,0.297,0.277,0.159,0.096,south-southwest,5.0,No
2019/02/28,00:40,0.217,0.196,0.319,0.297,0.279,0.160,0.096,south-southwest,4.8,Yes
2019/02/28,00:50,0.217,0.196,0.321,0.297,0.277,0.160,0.096,south-southwest,4.2,No
2019/02/28,01:00,0.218,0.197,0.319,0.298,0.277,0.159,0.097,south-southwest,3.2,No
2019/02/28,01:10,0.217,0.196,0.318,0.298,0.279,0.159,0.096,south-southwest,3.2,Yes
2019/02/28,01:20,0.217,0.196,0.320,0.297,0.279,0.160,0.096,south-southwest,3.8,No
2019/02/28,01:30,0.216,0.197,0.319,0.297,0.278,0.160,0.096,south-southwest,4.3,No
2019/02/28,01:40,0.217,0.195,0.319,0.298,0.278,0.160,0.096,south-southwest,5.0,Yes
2019/02/28,01:50,0.216,0.196,0.320,0.297,0.278,0.160,0.097,south-southwest,4.5,Yes
2019/02/28,02:00,0.218,0.197,0.319,0.298,0.279,0.161,0.097,south,3.1,Yes
2019/02/28,02:10,0.218,0.198,0.320,0.299,0.281,0.162,0.098,south,3.0,Yes
2019/02/28,02:20,0.218,0.198,0.320,0.298,0.280,0.162,0.098,south-southwest,2.6,Yes
2019/02/28,02:30,0.219,0.198,0.321,0.299,0.279,0.162,0.098,south-southwest,2.5,Yes
2019/02/28,02:40,0.220,0.198,0.321,0.299,0.280,0.162,0.099,south,1.8,Yes
2019/02/28,02:50,0.218,0.199,0.321,0.301,0.282,0.163,0.099,south-southeast,2.8,Yes
2019/02/28,03:00,0.219,0.200,0.322,0.301,0.280,0.163,0.100,south-southeast,3.0,Yes
2019/02/28,03:10,0.221,0.199,0.322,0.299,0.281,0.163,0.101,south,3.3,Yes
2019/02/28,03:20,0.220,0.199,0.321,0.300,0.281,0.164,0.100,south,3.7,Yes
2019/02/28,03:30,0.219,0.200,0.322,0.302,0.281,0.165,0.100,south,3.0,Yes
2019/02/28,03:40,0.221,0.200,0.322,0.300,0.280,0.164,0.101,south-southwest,2.0,Yes
2019/02/28,03:50,0.220,0.200,0.321,0.299,0.281,0.164,0.101,south-southwest,2.3,Yes
2019/02/28,04:00,0.221,0.199,0.319,0.300,0.281,0.164,0.101,south-southwest,2.2,Yes
2019/02/28,04:10,0.219,0.199,0.319,0.298,0.281,0.165,0.100,south-southwest,2.1,Yes
2019/02/28,04:20,0.219,0.199,0.319,0.298,0.280,0.163,0.100,south-southwest,2.1,Yes
2019/02/28,04:30,0.219,0.199,0.319,0.297,0.280,0.163,0.100,south-southwest,1.8,Yes
2019/02/28,04:40,0.219,0.197,0.319,0.296,0.278,0.163,0.100,south-southwest,1.6,Yes
2019/02/28,04:50,0.217,0.197,0.318,0.298,0.278,0.163,0.100,south,1.2,Yes
2019/02/28,05:00,0.218,0.197,0.317,0.295,0.279,0.163,0.099,south-southeast,0.6,Yes
2019/02/28,05:10,0.218,0.198,0.316,0.295,0.278,0.162,0.100,south-southeast,0.9,Yes
2019/02/28,05:20,0.217,0.198,0.316,0.295,0.279,0.162,0.099,south-southeast,1.3,Yes
2019/02/28,05:30,0.216,0.198,0.317,0.297,0.279,0.162,0.100,-,CALM,Yes
2019/02/28,05:40,0.217,0.197,0.317,0.296,0.278,0.162,0.099,west-northwest,1.1,Yes
2019/02/28,05:50,0.218,0.197,0.316,0.295,0.277,0.162,0.099,west-northwest,2.1,Yes
2019/02/28,06:00,0.219,0.198,0.315,0.296,0.279,0.163,0.101,west-northwest,2.3,Yes
2019/02/28,06:10,0.218,0.199,0.317,0.297,0.279,0.164,0.100,west-northwest,2.3,Yes
2019/02/28,06:20,0.219,0.198,0.314,0.295,0.280,0.163,0.101,west-northwest,2.8,Yes
2019/02/28,06:30,0.217,0.197,0.316,0.295,0.278,0.164,0.101,west-northwest,3.1,Yes
2019/02/28,06:40,0.218,0.198,0.317,0.295,0.279,0.164,0.101,northwest,3.7,Yes
2019/02/28,06:50,0.219,0.198,0.315,0.295,0.278,0.164,0.100,northwest,4.6,Yes
2019/02/28,07:00,0.217,0.198,0.315,0.294,0.278,0.163,0.101,north-northwest,6.2,Yes
2019/02/28,07:10,0.217,0.198,0.314,0.294,0.279,0.164,0.101,northwest,7.3,Yes
2019/02/28,07:20,0.218,0.198,0.315,0.295,0.277,0.162,0.100,north-northwest,6.0,Yes
2019/02/28,07:30,0.217,0.197,0.316,0.296,0.279,0.163,0.100,north,6.4,Yes
2019/02/28,07:40,0.217,0.198,0.315,0.293,0.279,0.161,0.101,north,6.3,Yes
2019/02/28,07:50,0.216,0.198,0.314,0.294,0.278,0.162,0.101,north-northwest,6.2,Yes
2019/02/28,08:00,0.216,0.197,0.315,0.294,0.277,0.161,0.099,north-northwest,6.1,Yes
2019/02/28,08:10,0.216,0.196,0.314,0.293,0.278,0.160,0.097,north,6.3,Yes
2019/02/28,08:20,0.215,0.195,0.312,0.292,0.277,0.160,0.097,north,6.4,No
2019/02/28,08:30,0.213,0.195,0.313,0.292,0.276,0.158,0.097,north-northwest,7.1,No
2019/02/28,08:40,0.213,0.193,0.311,0.292,0.275,0.159,0.097,north,7.8,No
2019/02/28,08:50,0.212,0.194,0.310,0.290,0.275,0.158,0.095,north-northwest,7.0,No
2019/02/28,09:00,0.212,0.192,0.310,0.289,0.275,0.157,0.095,north-northwest,7.1,No
2019/02/28,09:10,0.213,0.192,0.310,0.290,0.274,0.158,0.095,north-northwest,7.1,Yes
2019/02/28,09:20,0.213,0.193,0.311,0.291,0.276,0.158,0.095,north-northwest,7.3,Yes
2019/02/28,09:30,0.212,0.193,0.311,0.290,0.275,0.158,0.095,north-northwest,6.6,Yes
2019/02/28,09:40,0.214,0.194,0.311,0.291,0.276,0.158,0.096,north-northwest,5.4,Yes
2019/02/28,09:50,0.214,0.194,0.313,0.291,0.278,0.159,0.097,north-northwest,6.1,Yes
2019/02/28,10:00,0.214,0.195,0.310,0.291,0.277,0.160,0.097,north,6.2,Yes
2019/02/28,10:10,0.215,0.195,0.312,0.292,0.278,0.159,0.098,north,6.3,Yes
2019/02/28,10:20,0.216,0.196,0.314,0.294,0.278,0.161,0.099,north-northwest,7.1,Yes
2019/02/28,10:30,0.217,0.197,0.315,0.293,0.278,0.161,0.099,north-northwest,6.3,Yes
2019/02/28,10:40,0.216,0.198,0.314,0.293,0.279,0.162,0.100,north-northwest,7.6,Yes
2019/02/28,10:50,0.216,0.198,0.315,0.295,0.281,0.162,0.101,north-northwest,7.3,Yes
2019/02/28,11:00,0.219,0.199,0.316,0.295,0.280,0.165,0.101,north-northwest,7.6,Yes
2019/02/28,11:10,0.218,0.199,0.315,0.294,0.280,0.164,0.101,north-northwest,7.3,Yes
2019/02/28,11:20,0.220,0.201,0.316,0.297,0.280,0.164,0.102,north-northwest,6.5,Yes
2019/02/28,11:30,0.219,0.201,0.315,0.296,0.282,0.165,0.103,north-northwest,9.0,Yes
2019/02/28,11:40,0.220,0.200,0.316,0.295,0.281,0.166,0.104,north-northwest,8.1,Yes
2019/02/28,11:50,0.220,0.201,0.317,0.296,0.282,0.166,0.104,north-northwest,6.7,Yes
2019/02/28,12:00,0.221,0.202,0.318,0.299,0.284,0.168,0.105,north-northwest,6.5,Yes
2019/02/28,12:10,0.220,0.202,0.318,0.298,0.284,0.168,0.106,north-northwest,8.2,Yes
2019/02/28,12:20,0.221,0.202,0.317,0.298,0.283,0.168,0.106,north-northwest,7.3,Yes
2019/02/28,12:30,0.221,0.203,0.319,0.298,0.283,0.168,0.106,north-northwest,7.5,Yes
2019/02/28,12:40,0.220,0.201,0.318,0.298,0.284,0.169,0.105,north-northwest,7.0,Yes
2019/02/28,12:50,0.220,0.201,0.316,0.298,0.282,0.169,0.106,north-northwest,6.6,Yes
2019/02/28,13:00,0.220,0.201,0.316,0.295,0.283,0.167,0.105,north-northwest,6.9,Yes
2019/02/28,13:10,0.219,0.201,0.317,0.297,0.283,0.166,0.105,north-northwest,7.3,Yes
2019/02/28,13:20,0.219,0.201,0.317,0.296,0.283,0.166,0.105,north-northwest,7.0,Yes
2019/02/28,13:30,0.219,0.202,0.316,0.297,0.281,0.167,0.105,north-northwest,7.3,Yes
2019/02/28,13:40,0.219,0.201,0.314,0.296,0.282,0.168,0.106,north-northwest,6.0,Yes
2019/02/28,13:50,0.220,0.201,0.318,0.295,0.282,0.167,0.104,north-northwest,7.1,Yes
2019/02/28,14:00,0.219,0.201,0.317,0.295,0.281,0.166,0.104,north,7.1,Yes
2019/02/28,14:10,0.218,0.201,0.315,0.294,0.282,0.167,0.105,north-northwest,7.3,Yes
2019/02/28,14:20,0.219,0.201,0.317,0.295,0.282,0.166,0.104,north-northwest,6.7,Yes
2019/02/28,14:30,0.218,0.200,0.316,0.296,0.282,0.166,0.105,north-northwest,6.8,Yes
2019/02/28,14:40,0.219,0.202,0.315,0.295,0.281,0.168,0.105,north-northwest,6.6,Yes
2019/02/28,14:50,0.219,0.202,0.315,0.295,0.281,0.166,0.105,north-northwest,7.1,Yes
2019/02/28,15:00,0.219,0.201,0.316,0.296,0.283,0.167,0.105,north-northwest,7.1,Yes
2019/02/28,15:10,0.218,0.202,0.315,0.294,0.281,0.167,0.104,north-northwest,8.2,Yes
2019/02/28,15:20,0.218,0.201,0.315,0.292,0.280,0.165,0.103,north-northwest,8.4,Yes
2019/02/28,15:30,0.219,0.199,0.313,0.293,0.280,0.165,0.103,north-northwest,7.8,Yes
2019/02/28,15:40,0.218,0.199,0.314,0.295,0.280,0.164,0.103,north-northwest,7.1,Yes
2019/02/28,15:50,0.218,0.199,0.314,0.292,0.280,0.165,0.102,north-northwest,7.0,Yes
2019/02/28,16:00,0.217,0.199,0.313,0.293,0.279,0.163,0.103,north,6.8,Yes
2019/02/28,16:10,0.216,0.198,0.311,0.292,0.280,0.164,0.103,north-northwest,6.5,Yes
2019/02/28,16:20,0.217,0.198,0.312,0.293,0.280,0.164,0.103,north-northwest,7.1,Yes
2019/02/28,16:30,0.216,0.199,0.311,0.291,0.278,0.163,0.102,north-northwest,7.6,Yes
2019/02/28,16:40,0.215,0.197,0.311,0.293,0.280,0.165,0.103,north-northwest,7.1,Yes
2019/02/28,16:50,0.216,0.197,0.311,0.292,0.280,0.163,0.103,north-northwest,7.1,Yes
2019/02/28,17:00,0.216,0.198,0.311,0.291,0.280,0.162,0.103,north-northwest,7.3,Yes
2019/02/28,17:10,0.217,0.199,0.312,0.291,0.279,0.163,0.102,north-northwest,7.6,Yes
2019/02/28,17:20,0.216,0.197,0.309,0.291,0.280,0.162,0.102,north-northwest,6.7,Yes
2019/02/28,17:30,0.216,0.198,0.311,0.292,0.279,0.163,0.103,north,7.7,Yes
2019/02/28,17:40,0.217,0.199,0.312,0.292,0.279,0.162,0.102,north-northwest,6.9,Yes
2019/02/28,17:50,0.217,0.198,0.311,0.290,0.280,0.162,0.103,north-northwest,7.5,Yes
2019/02/28,18:00,0.216,0.200,0.311,0.292,0.280,0.163,0.104,north-northwest,7.3,Yes
2019/02/28,18:10,0.217,0.198,0.309,0.291,0.278,0.162,0.102,north-northwest,7.8,Yes
2019/02/28,18:20,0.216,0.198,0.311,0.292,0.278,0.162,0.101,north-northwest,8.4,Yes
2019/02/28,18:30,0.216,0.198,0.311,0.291,0.279,0.162,0.102,north-northwest,7.5,Yes
2019/02/28,18:40,0.217,0.197,0.309,0.291,0.279,0.163,0.102,north-northwest,7.1,Yes
2019/02/28,18:50,0.216,0.198,0.310,0.293,0.280,0.162,0.104,north-northwest,6.5,Yes
2019/02/28,19:00,0.216,0.196,0.311,0.291,0.278,0.161,0.102,north-northwest,7.0,Yes
2019/02/28,19:10,0.215,0.195,0.310,0.289,0.278,0.160,0.100,north-northwest,7.8,Yes
2019/02/28,19:20,0.214,0.194,0.309,0.289,0.276,0.159,0.100,north-northwest,8.6,Yes
2019/02/28,19:30,0.213,0.194,0.308,0.288,0.276,0.159,0.100,north-northwest,8.6,Yes
2019/02/28,19:40,0.213,0.193,0.308,0.288,0.276,0.159,0.099,north-northwest,8.7,Yes
2019/02/28,19:50,0.210,0.192,0.307,0.287,0.277,0.158,0.098,north-northwest,9.0,Yes
2019/02/28,20:00,0.212,0.192,0.308,0.288,0.276,0.157,0.098,north-northwest,8.8,Yes
2019/02/28,20:10,0.212,0.193,0.306,0.287,0.274,0.157,0.097,north-northwest,8.4,Yes
2019/02/28,20:20,0.210,0.192,0.306,0.286,0.276,0.155,0.097,north-northwest,8.5,Yes
2019/02/28,20:30,0.210,0.190,0.306,0.285,0.273,0.155,0.096,north-northwest,7.8,Yes
2019/02/28,20:40,0.210,0.190,0.305,0.284,0.273,0.154,0.096,north-northwest,8.7,Yes
2019/02/28,20:50,0.211,0.189,0.303,0.285,0.273,0.155,0.094,north-northwest,8.4,Yes
2019/02/28,21:00,0.210,0.191,0.305,0.284,0.273,0.154,0.094,north-northwest,8.8,Yes
2019/02/28,21:10,0.209,0.190,0.305,0.283,0.273,0.154,0.094,north-northwest,9.2,No
2019/02/28,21:20,0.209,0.189,0.305,0.285,0.272,0.153,0.094,north-northwest,8.4,No
2019/02/28,21:30,0.209,0.189,0.304,0.284,0.273,0.153,0.093,north-northwest,8.7,No
2019/02/28,21:40,0.208,0.188,0.303,0.284,0.272,0.153,0.093,north-northwest,9.5,No
2019/02/28,21:50,0.209,0.188,0.304,0.284,0.271,0.152,0.094,north-northwest,9.5,No
2019/02/28,22:00,0.209,0.188,0.304,0.284,0.272,0.153,0.093,north-northwest,9.5,No
2019/02/28,22:10,0.208,0.188,0.303,0.284,0.272,0.153,0.093,north-northwest,8.6,No
2019/02/28,22:20,0.208,0.188,0.305,0.283,0.272,0.152,0.093,north-northwest,8.5,No
2019/02/28,22:30,0.209,0.187,0.304,0.284,0.271,0.152,0.093,north-northwest,8.4,No
2019/02/28,22:40,0.208,0.188,0.303,0.283,0.273,0.153,0.093,north-northwest,8.4,No
2019/02/28,22:50,0.208,0.188,0.303,0.284,0.272,0.153,0.093,north-northwest,8.2,No
2019/02/28,23:00,0.208,0.188,0.304,0.283,0.272,0.152,0.093,north-northwest,8.1,No
2019/02/28,23:10,0.209,0.187,0.305,0.284,0.273,0.152,0.093,north-northwest,9.2,No
2019/02/28,23:20,0.208,0.188,0.303,0.284,0.272,0.152,0.093,north-northwest,8.8,No
2019/02/28,23:30,0.207,0.188,0.304,0.284,0.271,0.153,0.092,north-northwest,9.2,No
2019/02/28,23:40,0.208,0.188,0.303,0.283,0.272,0.153,0.093,north,7.4,No
2019/02/28,23:50,0.208,0.187,0.303,0.285,0.271,0.153,0.092,north-northwest,7.7,No
